星链-2406 (STARLINK-2406 )

导读

STARLINK-2406是美国SpaceX公司星链星座的成员卫星,于2021年3月11日发射升空,属于星链互联网卫星组网的一部分。星链系统旨在为全球提供低延迟、高速率的宽带互联网服务,该卫星承担着天地信号传输任务,依托近地轨道部署,助力全球偏远地区网络覆盖,补充完善全球卫星互联网通信网络的覆盖能力。

Basic Information
目录编号:
47821
目录名称:
STARLINK-2406
国际标识:
2021-018AL
轨道中心:
EARTH
卫星名称:
星链-2406
卫星全名:
星链-2406 (STARLINK-2406 )
卫星状态:
在轨 (已飞行1925 天)
发射日期:
2021-03-11 UTC
国别 :
美国 (US)
星等 :
--
Orbit Information
数据来源 国际轨道数据 AOE轨道数据
星历时间 2026-06-18T11:16:36+0800
14小时前
查看轨道信息
2026-06-17T17:00:00+0800
1天前
查看轨道信息
半长轴 6848.881km 6848.893km
偏心率 0.0001257 0.0000635
轨道倾角 53.159° 53.156°
近地点辐角 108.965° 46.076°
升交点赤经 135.625° 139.171°
平近点角 251.149° 72.542°
近地点 469.883km 470.321km
远地点 471.605km 471.191km
周期 94.013分钟 94.014分钟
每日圈数 15.316988 15.316949
Detailed Information
固有亮度:
5
最大亮度:
2.5
卫星平台:
Starlink V1.0
覆盖范围:
全球
运营商:
太空探索技术公司
运营商所在国:
美国
制造商(研发单位):
太空探索技术公司
制造商所在国:
美国
使用方式:
暂无
Satellite Introduction
星链(Starlink)计划是由太空探索技术公司(SpaceX)提出的一个巨型低轨卫星互联网星座项目,计划在2019年至2024年间在太空搭建由约1.2万颗卫星组成的“星链”网络,其中1584颗将部署在地球上空550千米处的近地轨道,并从2020年开始工作。该卫星仍在工作。
2D Orbit Map
3D Orbit Map
Orbit Altitude Analysis Chart
Orbit Inclination Analysis Chart
Orbit Comprehensive Analysis Chart
View Comprehensive Chart